If you wish to contribute or participate in the discussions about articles you are invited to join SKYbrary as a registered user

 Actions

Angoulême-Brie-Champniers Airport

From SKYbrary Wiki

LFBU
Airport
ICAO: LFBU – IATA: ANG
Summary
Name Angoulême-Brie-Champniers Airport
Region Europe
Territory France FR.gif
Location , Poitou-Charentes
Serving Angouleme
Elevation 132.893 m
436 ft
436 ft132.893 m
Type medium airport
Coordinates 45° 43' 45.29" N, 0° 13' 17.24" E
Runways
Designator Length Width Surface ROPS
10/28 1810 m5,938.32 ft
45 m147.638 ft
ASP /


METAR
Observation LFBU 170300Z AUTO 17007KT 140V200 9999 BKN035 OVC041 15/11 Q1012
Station BRIE CHAMPNIERS
Date/Time 17 October 2019 03:00:00
Wind direction 170°
Wind speed 07 kts
Lowest cloud amount broken clouds
Temperature 15°C
Dew point 11°C
Humidity 77%
QNH 1012 hPa
Weather condition n/a